| time (UTC) | temp C | wind direction | speed KPH | gust KPH | rain 1hr cm | rain 24hr cm | rain mn cm | humidity % | barometer mb |
| 20260504184331 | 26 | 154 | 1.6 | 8.0 | 0.00 | 0.00 | 0.00 | 32 | 1015.1 |
| 20260504183826 | 26 | 193 | 1.6 | 8.0 | 0.00 | 0.00 | 0.00 | 33 | 1015.2 |
| 20260504183324 | 25 | 315 | 1.6 | 6.4 | 0.00 | 0.00 | 0.00 | 37 | 1015.2 |
| 20260504182822 | 23 | 315 | 6.4 | 14.5 | 0.00 | 0.00 | 0.00 | 36 | 1015.1 |
| 20260504182319 | 25 | 268 | 9.7 | 9.7 | 0.00 | 0.00 | 0.00 | 34 | 1015.2 |
| 20260504181816 | 26 | 274 | 3.2 | 4.8 | 0.00 | 0.00 | 0.00 | 37 | 1015.1 |
| 20260504181313 | 26 | 128 | 6.4 | 8.0 | 0.00 | 0.00 | 0.00 | 31 | 1015.3 |
| 20260504180812 | 25 | 356 | 4.8 | 8.0 | 0.00 | 0.00 | 0.00 | 35 | 1015.3 |
| 20260504180310 | 24 | 223 | 9.7 | 9.7 | 0.00 | 0.00 | 0.00 | 36 | 1015.0 |
| 20260504175808 | 23 | 296 | 4.8 | 9.7 | 0.00 | 0.00 | 0.00 | 36 | 1015.1 |
| 20260504175304 | 24 | 247 | 6.4 | 8.0 | 0.00 | 0.00 | 0.00 | 36 | 1015.3 |
| 20260504174803 | 24 | 305 | 9.7 | 9.7 | 0.00 | 0.00 | 0.00 | 36 | 1015.4 |
| 20260504174300 | 23 | 278 | 8.0 | 14.5 | 0.00 | 0.00 | 0.00 | 35 | 1015.4 |
| 20260504173756 | 23 | 272 | 3.2 | 11.3 | 0.00 | 0.00 | 0.00 | 39 | 1015.7 |
| 20260504173253 | 22 | 277 | 4.8 | 6.4 | 0.00 | 0.00 | 0.00 | 36 | 1015.5 |
| 20260504172750 | 23 | 294 | 6.4 | 12.9 | 0.00 | 0.00 | 0.00 | 36 | 1015.5 |
| 20260504172247 | 25 | 262 | 8.0 | 8.0 | 0.00 | 0.00 | 0.00 | 34 | 1015.5 |
| 20260504171743 | 23 | 150 | 0.0 | 4.8 | 0.00 | 0.00 | 0.00 | 37 | 1015.7 |
| 20260504171240 | 23 | 314 | 1.6 | 6.4 | 0.00 | 0.00 | 0.00 | 39 | 1015.8 |
| 20260504170737 | 22 | 349 | 1.6 | 14.5 | 0.00 | 0.00 | 0.00 | 36 | 1015.9 |
| 20260504170234 | 23 | 285 | 17.7 | 20.9 | 0.00 | 0.00 | 0.00 | 34 | 1015.9 |
| 20260504160153 | 21 | 277 | 9.7 | 14.5 | 0.00 | 0.00 | 0.00 | 37 | 1017.1 |
| 20260504151120 | 21 | 233 | 3.2 | 4.8 | 0.00 | 0.00 | 0.00 | 42 | 1017.2 |
| 20260504150618 | 20 | 289 | 3.2 | 9.7 | 0.00 | 0.00 | 0.00 | 44 | 1017.2 |
| 20260504150115 | 19 | 224 | 3.2 | 6.4 | 0.00 | 0.00 | 0.00 | 44 | 1017.2 |
| 20260504141043 | 18 | 210 | 3.2 | 4.8 | 0.00 | 0.00 | 0.00 | 47 | 1017.2 |
| 20260504140540 | 18 | 297 | 3.2 | 3.2 | 0.00 | 0.00 | 0.00 | 55 | 1017.2 |
| 20260504130504 | 14 | 264 | 3.2 | 4.8 | 0.00 | 0.00 | 0.00 | 74 | 1017.0 |
| 20260504110351 | 3 | 284 | 0.0 | 3.2 | 0.00 | 0.00 | 0.00 | 99 | 1016.8 |
| 20260504100309 | 3 | 299 | 0.0 | 1.6 | 0.00 | 0.00 | 0.00 | 98 | 1016.7 |
| 20260504081708 | 3 | 328 | 1.6 | 1.6 | 0.00 | 0.00 | 0.00 | 95 | 1016.7 |
| 20260504081204 | 3 | 293 | 0.0 | 0.0 | 0.00 | 0.00 | 0.00 | 94 | 1016.7 |
| 20260504080700 | 4 | 243 | 0.0 | 0.0 | 0.00 | 0.00 | 0.00 | 94 | 1016.6 |
| 20260504080157 | 4 | 266 | 1.6 | 1.6 | 0.00 | 0.00 | 0.00 | 94 | 1016.8 |
| 20260504070125 | 4 | 38 | 0.0 | 1.6 | 0.00 | 0.00 | 0.00 | 92 | 1016.4 |
| 20260504050514 | 5 | 34 | 0.0 | 0.0 | 0.00 | 0.00 | 0.00 | 87 | 1016.9 |
| 20260504050011 | 5 | 34 | 0.0 | 0.0 | 0.00 | 0.00 | 0.00 | 87 | 1016.9 |
| 20260504045507 | 5 | 34 | 0.0 | 0.0 | 0.00 | 0.00 | 0.00 | 86 | 1016.9 |
| 20260504045003 | 5 | 34 | 0.0 | 0.0 | 0.00 | 0.00 | 0.00 | 86 | 1016.9 |
| 20260504044500 | 5 | 34 | 0.0 | 1.6 | 0.00 | 0.00 | 0.00 | 86 | 1016.8 |
| 20260504043957 | 5 | 27 | 0.0 | 1.6 | 0.00 | 0.00 | 0.00 | 86 | 1017.0 |
| 20260504043454 | 5 | 212 | 0.0 | 0.0 | 0.00 | 0.00 | 0.00 | 85 | 1016.8 |
| 20260504042952 | 5 | 218 | 0.0 | 1.6 | 0.00 | 0.00 | 0.00 | 85 | 1016.9 |
| 20260504042448 | 5 | 22 | 0.0 | 0.0 | 0.00 | 0.00 | 0.00 | 84 | 1016.9 |
| 20260504041945 | 5 | 22 | 0.0 | 0.0 | 0.00 | 0.00 | 0.00 | 83 | 1017.1 |
| 20260504041441 | 5 | 32 | 0.0 | 1.6 | 0.00 | 0.00 | 0.00 | 83 | 1017.0 |
| 20260504040937 | 5 | 60 | 0.0 | 3.2 | 0.00 | 0.00 | 0.00 | 83 | 1016.9 |
| 20260504040435 | 5 | 42 | 1.6 | 1.6 | 0.00 | 0.00 | 0.00 | 83 | 1016.8 |
| 20260504035931 | 5 | 44 | 0.0 | 0.0 | 0.00 | 0.00 | 0.00 | 82 | 1017.0 |
| 20260504035428 | 5 | 44 | 0.0 | 0.0 | 0.00 | 0.00 | 0.00 | 82 | 1016.9 |
| 20260504034925 | 6 | 235 | 0.0 | 0.0 | 0.00 | 0.00 | 0.00 | 81 | 1017.1 |
| 20260504034423 | 6 | 44 | 0.0 | 0.0 | 0.00 | 0.00 | 0.00 | 82 | 1017.2 |
| 20260504033919 | 6 | 44 | 0.0 | 0.0 | 0.00 | 0.00 | 0.00 | 81 | 1017.3 |
| 20260504033417 | 6 | 13 | 0.0 | 0.0 | 0.00 | 0.00 | 0.00 | 81 | 1017.1 |
| 20260504032914 | 6 | 44 | 0.0 | 3.2 | 0.00 | 0.00 | 0.00 | 81 | 1017.1 |
| 20260504032411 | 6 | 85 | 1.6 | 3.2 | 0.00 | 0.00 | 0.00 | 80 | 1017.1 |
| 20260504031908 | 6 | 218 | 0.0 | 0.0 | 0.00 | 0.00 | 0.00 | 80 | 1017.2 |
| 20260504031405 | 6 | 329 | 0.0 | 0.0 | 0.00 | 0.00 | 0.00 | 79 | 1017.1 |
| 20260504030901 | 6 | 315 | 0.0 | 1.6 | 0.00 | 0.00 | 0.00 | 79 | 1017.2 |
| 20260504030358 | 6 | 242 | 0.0 | 1.6 | 0.00 | 0.00 | 0.00 | 78 | 1017.1 |
| 20260504025854 | 6 | 326 | 0.0 | 0.0 | 0.00 | 0.00 | 0.00 | 78 | 1017.1 |
| 20260504025351 | 6 | 304 | 0.0 | 0.0 | 0.00 | 0.00 | 0.00 | 78 | 1017.0 |
| 20260504024848 | 6 | 326 | 0.0 | 1.6 | 0.00 | 0.00 | 0.00 | 78 | 1017.0 |
| 20260504024344 | 6 | 302 | 0.0 | 1.6 | 0.00 | 0.00 | 0.00 | 77 | 1016.9 |
| 20260504023842 | 6 | 315 | 0.0 | 1.6 | 0.00 | 0.00 | 0.00 | 77 | 1017.0 |
| 20260504023339 | 6 | 310 | 0.0 | 0.0 | 0.00 | 0.00 | 0.00 | 77 | 1016.8 |
| 20260504022834 | 7 | 295 | 1.6 | 1.6 | 0.00 | 0.00 | 0.00 | 76 | 1016.8 |
| 20260504022331 | 7 | 256 | 0.0 | 1.6 | 0.00 | 0.00 | 0.00 | 76 | 1016.8 |
| 20260504021827 | 7 | 304 | 0.0 | 0.0 | 0.00 | 0.00 | 0.00 | 76 | 1016.6 |
| 20260504021325 | 7 | 315 | 0.0 | 0.0 | 0.00 | 0.00 | 0.00 | 75 | 1016.7 |
| 20260504020822 | 7 | 235 | 0.0 | 1.6 | 0.00 | 0.00 | 0.00 | 75 | 1016.8 |
| 20260504020319 | 7 | 291 | 1.6 | 1.6 | 0.00 | 0.00 | 0.00 | 74 | 1016.6 |
| 20260504015814 | 7 | 293 | 0.0 | 0.0 | 0.00 | 0.00 | 0.00 | 74 | 1016.6 |
| 20260504015311 | 7 | 293 | 0.0 | 0.0 | 0.00 | 0.00 | 0.00 | 74 | 1016.4 |
| 20260504014807 | 7 | 269 | 0.0 | 0.0 | 0.00 | 0.00 | 0.00 | 73 | 1016.5 |
| 20260504014303 | 7 | 302 | 1.6 | 1.6 | 0.00 | 0.00 | 0.00 | 73 | 1016.5 |
| 20260504013801 | 7 | 315 | 0.0 | 1.6 | 0.00 | 0.00 | 0.00 | 72 | 1016.5 |
| 20260504013259 | 8 | 249 | 0.0 | 1.6 | 0.00 | 0.00 | 0.00 | 71 | 1016.3 |
| 20260504012755 | 8 | 246 | 0.0 | 1.6 | 0.00 | 0.00 | 0.00 | 71 | 1016.5 |
| 20260504012253 | 8 | 304 | 0.0 | 0.0 | 0.00 | 0.00 | 0.00 | 70 | 1016.3 |
| 20260504011749 | 8 | 224 | 0.0 | 0.0 | 0.00 | 0.00 | 0.00 | 70 | 1016.4 |
| 20260504011246 | 8 | 301 | 1.6 | 3.2 | 0.00 | 0.00 | 0.00 | 69 | 1016.3 |
| 20260504010742 | 8 | 308 | 1.6 | 1.6 | 0.00 | 0.00 | 0.00 | 69 | 1016.3 |
| 20260504010238 | 9 | 336 | 0.0 | 0.0 | 0.00 | 0.00 | 0.00 | 69 | 1016.1 |
| 20260504005735 | 9 | 282 | 0.0 | 1.6 | 0.00 | 0.00 | 0.00 | 67 | 1016.2 |
| 20260504005232 | 9 | 315 | 0.0 | 1.6 | 0.00 | 0.00 | 0.00 | 67 | 1016.2 |
| 20260504004730 | 10 | 310 | 0.0 | 1.6 | 0.00 | 0.00 | 0.00 | 66 | 1016.2 |
| 20260504004226 | 10 | 291 | 0.0 | 1.6 | 0.00 | 0.00 | 0.00 | 65 | 1016.2 |
| 20260504003723 | 10 | 251 | 0.0 | 3.2 | 0.00 | 0.00 | 0.00 | 64 | 1016.1 |
| 20260504003220 | 10 | 249 | 1.6 | 1.6 | 0.00 | 0.00 | 0.00 | 63 | 1016.2 |
| 20260504002717 | 11 | 251 | 0.0 | 1.6 | 0.00 | 0.00 | 0.00 | 62 | 1015.9 |
| 20260504002214 | 11 | 256 | 0.0 | 1.6 | 0.00 | 0.00 | 0.00 | 61 | 1015.9 |
| 20260504001712 | 11 | 299 | 0.0 | 1.6 | 0.00 | 0.00 | 0.00 | 59 | 1015.9 |
| 20260504001208 | 12 | 252 | 1.6 | 1.6 | 0.00 | 0.00 | 0.00 | 57 | 1015.9 |
| 20260504000705 | 12 | 248 | 1.6 | 3.2 | 0.00 | 0.00 | 0.00 | 54 | 1015.8 |
| 20260504000204 | 12 | 295 | 0.0 | 1.6 | 0.00 | 0.00 | 0.00 | 52 | 1016.1 |
| 20260503235700 | 13 | 256 | 0.0 | 0.0 | 0.00 | 0.00 | 0.00 | 51 | 1015.9 |
| 20260503235157 | 13 | 256 | 0.0 | 1.6 | 0.00 | 0.00 | 0.00 | 50 | 1016.0 |
| 20260503234655 | 13 | 246 | 0.0 | 0.0 | 0.00 | 0.00 | 0.00 | 48 | 1015.8 |
| 20260503234153 | 14 | 255 | 0.0 | 1.6 | 0.00 | 0.00 | 0.00 | 46 | 1015.8 |
| 20260503233649 | 15 | 290 | 0.0 | 0.0 | 0.00 | 0.00 | 0.00 | 45 | 1016.1 |
| 20260503233145 | 16 | 0 | 0.0 | 3.2 | 0.00 | 0.00 | 0.00 | 43 | 1015.9 |
| 20260503232642 | 17 | 130 | 1.6 | 1.6 | 0.00 | 0.00 | 0.00 | 39 | 1015.9 |
| 20260503232139 | 17 | 293 | 0.0 | 1.6 | 0.00 | 0.00 | 0.00 | 38 | 1015.5 |
| 20260503231638 | 18 | 224 | 0.0 | 0.0 | 0.00 | 0.00 | 0.00 | 35 | 1015.9 |
| 20260503231133 | 18 | 249 | 0.0 | 3.2 | 0.00 | 0.00 | 0.00 | 35 | 1015.9 |
| 20260503230630 | 18 | 309 | 0.0 | 3.2 | 0.00 | 0.00 | 0.00 | 36 | 1015.9 |
| 20260503230128 | 19 | 217 | 0.0 | 4.8 | 0.00 | 0.00 | 0.00 | 32 | 1015.9 |
| 20260503225625 | 18 | 326 | 4.8 | 6.4 | 0.00 | 0.00 | 0.00 | 32 | 1015.9 |
| 20260503225124 | 18 | 305 | 3.2 | 8.0 | 0.00 | 0.00 | 0.00 | 32 | 1016.1 |
| 20260503224622 | 20 | 335 | 3.2 | 3.2 | 0.00 | 0.00 | 0.00 | 33 | 1016.1 |
| 20260503224120 | 19 | 301 | 1.6 | 3.2 | 0.00 | 0.00 | 0.00 | 37 | 1016.1 |
| 20260503223618 | 19 | 229 | 0.0 | 6.4 | 0.00 | 0.00 | 0.00 | 31 | 1016.2 |
| 20260503223114 | 20 | 272 | 3.2 | 4.8 | 0.00 | 0.00 | 0.00 | 33 | 1016.0 |
| 20260503222612 | 19 | 256 | 3.2 | 8.0 | 0.00 | 0.00 | 0.00 | 30 | 1016.2 |
| 20260503222109 | 18 | 280 | 3.2 | 8.0 | 0.00 | 0.00 | 0.00 | 28 | 1016.1 |
| 20260503221607 | 20 | 258 | 9.7 | 9.7 | 0.00 | 0.00 | 0.00 | 29 | 1016.3 |
| 20260503221104 | 18 | 233 | 8.0 | 11.3 | 0.00 | 0.00 | 0.00 | 29 | 1016.4 |
| 20260503220600 | 20 | 249 | 6.4 | 6.4 | 0.00 | 0.00 | 0.00 | 29 | 1016.5 |
| 20260503220058 | 19 | 282 | 4.8 | 9.7 | 0.00 | 0.00 | 0.00 | 29 | 1016.5 |
| 20260503215554 | 19 | 268 | 4.8 | 9.7 | 0.00 | 0.00 | 0.00 | 29 | 1016.5 |
| 20260503215051 | 18 | 254 | 6.4 | 9.7 | 0.00 | 0.00 | 0.00 | 32 | 1016.3 |
| 20260503214550 | 20 | 256 | 4.8 | 11.3 | 0.00 | 0.00 | 0.00 | 29 | 1016.6 |
| 20260503214046 | 20 | 62 | 6.4 | 6.4 | 0.00 | 0.00 | 0.00 | 29 | 1016.6 |
| 20260503213544 | 19 | 266 | 3.2 | 6.4 | 0.00 | 0.00 | 0.00 | 32 | 1016.6 |
| 20260503213041 | 18 | 252 | 11.3 | 16.1 | 0.00 | 0.00 | 0.00 | 29 | 1016.7 |
| 20260503212538 | 18 | 220 | 9.7 | 14.5 | 0.00 | 0.00 | 0.00 | 29 | 1016.8 |
| 20260503212036 | 20 | 307 | 12.9 | 14.5 | 0.00 | 0.00 | 0.00 | 28 | 1016.8 |
| 20260503211532 | 19 | 262 | 9.7 | 12.9 | 0.00 | 0.00 | 0.00 | 30 | 1016.7 |
| 20260503211028 | 20 | 273 | 4.8 | 6.4 | 0.00 | 0.00 | 0.00 | 28 | 1016.6 |
| 20260503210525 | 20 | 73 | 4.8 | 9.7 | 0.00 | 0.00 | 0.00 | 28 | 1016.7 |
| 20260503210021 | 18 | 263 | 14.5 | 16.1 | 0.00 | 0.00 | 0.00 | 29 | 1016.7 |
| 20260503205517 | 20 | 267 | 9.7 | 14.5 | 0.00 | 0.00 | 0.00 | 27 | 1016.9 |
| 20260503205014 | 20 | 352 | 3.2 | 14.5 | 0.00 | 0.00 | 0.00 | 26 | 1016.8 |
| 20260503204511 | 20 | 259 | 3.2 | 16.1 | 0.00 | 0.00 | 0.00 | 28 | 1016.8 |
| 20260503204008 | 21 | 276 | 8.0 | 8.0 | 0.00 | 0.00 | 0.00 | 28 | 1016.8 |
| 20260503203505 | 20 | 37 | 3.2 | 4.8 | 0.00 | 0.00 | 0.00 | 27 | 1017.0 |
| 20260503203002 | 18 | 247 | 8.0 | 12.9 | 0.00 | 0.00 | 0.00 | 28 | 1017.0 |
| 20260503202500 | 20 | 290 | 8.0 | 8.0 | 0.00 | 0.00 | 0.00 | 28 | 1017.2 |
| 20260503201958 | 19 | 164 | 1.6 | 6.4 | 0.00 | 0.00 | 0.00 | 29 | 1017.0 |
| 20260503201455 | 18 | 307 | 4.8 | 9.7 | 0.00 | 0.00 | 0.00 | 31 | 1017.3 |
| 20260503200952 | 19 | 278 | 6.4 | 11.3 | 0.00 | 0.00 | 0.00 | 28 | 1017.3 |
| 20260503200449 | 18 | 221 | 4.8 | 9.7 | 0.00 | 0.00 | 0.00 | 29 | 1017.3 |
| 20260503195945 | 19 | 225 | 3.2 | 8.0 | 0.00 | 0.00 | 0.00 | 31 | 1017.4 |
| 20260503195443 | 18 | 259 | 9.7 | 14.5 | 0.00 | 0.00 | 0.00 | 30 | 1017.6 |
| 20260503194939 | 18 | 283 | 8.0 | 16.1 | 0.00 | 0.00 | 0.00 | 30 | 1017.4 |
| 20260503194437 | 18 | 237 | 1.6 | 19.3 | 0.00 | 0.00 | 0.00 | 33 | 1017.6 |
| 20260503193931 | 19 | 103 | 3.2 | 6.4 | 0.00 | 0.00 | 0.00 | 30 | 1017.7 |
| 20260503193427 | 17 | 244 | 9.7 | 11.3 | 0.00 | 0.00 | 0.00 | 27 | 1017.6 |
| 20260503192923 | 18 | 206 | 8.0 | 19.3 | 0.00 | 0.00 | 0.00 | 26 | 1017.7 |
| 20260503192420 | 17 | 239 | 6.4 | 30.6 | 0.00 | 0.00 | 0.00 | 30 | 1017.8 |
| 20260503191915 | 18 | 13 | 3.2 | 9.7 | 0.00 | 0.00 | 0.00 | 28 | 1017.8 |
| 20260503191413 | 17 | 317 | 6.4 | 6.4 | 0.00 | 0.00 | 0.00 | 30 | 1017.8 |
| 20260503190909 | 18 | 258 | 1.6 | 11.3 | 0.00 | 0.00 | 0.00 | 29 | 1018.0 |
| 20260503190407 | 18 | 157 | 0.0 | 9.7 | 0.00 | 0.00 | 0.00 | 28 | 1018.2 |
| 20260503185903 | 16 | 144 | 8.0 | 19.3 | 0.00 | 0.00 | 0.00 | 29 | 1018.3 |
| 20260503185400 | 18 | 235 | 3.2 | 9.7 | 0.00 | 0.00 | 0.00 | 30 | 1018.1 |
| 20260503184859 | 17 | 110 | 3.2 | 11.3 | 0.00 | 0.00 | 0.00 | 29 | 1018.1 |